Waseca, MN

5:43 AM CDT on April 24, 2017 (GMT -0500)
Waseca Municipal

Weather History for KACQ - October, 2012

Change the Weather History Date:

Monday, October 29, 2012

  Actual Average Record
Temperature  
Mean Temperature 37 °F -  
Max Temperature 44 °F 51 °F 81 °F (1950)
Min Temperature 30 °F 30 °F -1 °F (1925)
Degree Days  
Heating Degree Days 28    
Moisture  
Dew Point 26 °F    
Average Humidity 64    
Maximum Humidity 81    
Minimum Humidity 49    
Precipitation  
Precipitation 0.00 in - - ()
Sea Level Pressure  
Sea Level Pressure 30.28 in    
Wind  
Wind Speed 9 mph (ESE)    
Max Wind Speed 16 mph    
Max Gust Speed 22 mph    
Visibility 10 miles    
Events      
Averages and records for this station are not official NWS values.
T = Trace of Precipitation, MM = Missing Value Source: NWS Daily Summary

Daily Weather History Graph

Daily Weather History Graph

Search for Another Location

Airport or City:

Trip Planner

Search our weather history database for the weather conditions in past years. The results will help you decide how hot, cold, wet, or windy it might be!

Date:

Astronomy

Oct. 29, 2012 Rise Set
Actual Time 7:47 AM CDT 6:07 PM CDT
Civil Twilight 7:17 AM CDT 6:37 PM CDT
Nautical Twilight 6:43 AM CDT 7:11 PM CDT
Astronomical Twilight 6:10 AM CDT 7:44 PM CDT
Moon 5:58 PM CDT (10/29) 7:39 AM CDT (10/29)
Length of Visible Light 11h 19m
Length of Day
10h 20m
Full, 100% of the Moon is Illuminated
Oct 29
Full
Oct 29
Full
Nov 6
Last Quarter
Nov 13
New
Nov 20
First Quarter

Hourly Weather History & Observations

Time (CDT) Temp. Windchill Dew Point Humidity Pressure Visibility Wind Dir Wind Speed Gust Speed Precip Events Conditions
12:13 AM 32.0 °F 24.2 °F 23.0 °F 69% 30.30 in 10.0 mi ESE 9.2 mph - N/A   Clear
12:33 AM 33.8 °F 27.7 °F 23.0 °F 65% 30.30 in 10.0 mi SE 6.9 mph - N/A   Clear
12:52 AM 33.8 °F 27.0 °F 23.0 °F 65% 30.30 in 10.0 mi ESE 8.1 mph - N/A   Clear
1:13 AM 32.0 °F 24.8 °F 23.0 °F 69% 30.30 in 10.0 mi SE 8.1 mph - N/A   Clear
1:33 AM 33.8 °F 27.7 °F 23.0 °F 65% 30.30 in 10.0 mi SE 6.9 mph - N/A   Clear
1:53 AM 32.0 °F 24.8 °F 21.2 °F 64% 30.30 in 10.0 mi ESE 8.1 mph - N/A   Clear
2:13 AM 32.0 °F 24.8 °F 23.0 °F 69% 30.30 in 10.0 mi SE 8.1 mph - N/A   Clear
2:33 AM 33.8 °F 27.7 °F 24.8 °F 70% 30.31 in 10.0 mi ESE 6.9 mph - N/A   Clear
2:52 AM 30.2 °F 23.4 °F 21.2 °F 69% 30.31 in 10.0 mi ESE 6.9 mph - N/A   Clear
3:13 AM 32.0 °F 25.6 °F 23.0 °F 69% 30.31 in 10.0 mi SE 6.9 mph - N/A   Clear
3:33 AM 32.0 °F 24.8 °F 23.0 °F 69% 30.30 in 10.0 mi SE 8.1 mph - N/A   Clear
3:53 AM 32.0 °F 24.8 °F 21.2 °F 64% 30.30 in 10.0 mi ESE 8.1 mph - N/A   Clear
4:13 AM 30.2 °F 21.9 °F 21.2 °F 69% 30.30 in 10.0 mi ESE 9.2 mph - N/A   Clear
4:32 AM 30.2 °F 21.9 °F 21.2 °F 69% 30.30 in 10.0 mi ESE 9.2 mph - N/A   Clear
4:53 AM 30.2 °F 21.3 °F 21.2 °F 69% 30.30 in 10.0 mi ESE 10.4 mph - N/A   Clear
5:13 AM 30.2 °F 21.9 °F 21.2 °F 69% 30.30 in 10.0 mi ESE 9.2 mph - N/A   Clear
5:53 AM 30.2 °F 23.4 °F 21.2 °F 69% 30.30 in 10.0 mi ESE 6.9 mph - N/A   Clear
6:13 AM 30.2 °F 22.6 °F 21.2 °F 69% 30.30 in 10.0 mi ESE 8.1 mph - N/A   Clear
6:32 AM 30.2 °F 22.6 °F 21.2 °F 69% 30.29 in 10.0 mi ESE 8.1 mph - N/A   Clear
6:53 AM 32.0 °F 25.6 °F 23.0 °F 69% 30.30 in 10.0 mi SE 6.9 mph - N/A   Clear
7:13 AM 32.0 °F 24.8 °F 23.0 °F 69% 30.30 in 10.0 mi ESE 8.1 mph - N/A   Clear
7:32 AM 32.0 °F 24.8 °F 23.0 °F 69% 30.30 in 10.0 mi ESE 8.1 mph - N/A   Scattered Clouds
7:53 AM 33.8 °F 27.7 °F 26.6 °F 75% 30.30 in 10.0 mi ESE 6.9 mph - N/A   Mostly Cloudy
8:13 AM 33.8 °F 27.7 °F 24.8 °F 70% 30.30 in 10.0 mi ESE 6.9 mph - N/A   Overcast
8:33 AM 33.8 °F 27.0 °F 23.0 °F 65% 30.31 in 10.0 mi SE 8.1 mph - N/A   Overcast
8:53 AM 33.8 °F 27.7 °F 24.8 °F 70% 30.31 in 10.0 mi SE 6.9 mph - N/A   Overcast
9:13 AM 35.6 °F 28.0 °F 26.6 °F 70% 30.31 in 10.0 mi SE 10.4 mph - N/A   Overcast
9:32 AM 35.6 °F 28.0 °F 26.6 °F 70% 30.31 in 10.0 mi SE 10.4 mph - N/A   Overcast
9:53 AM 39.2 °F 32.0 °F 26.6 °F 61% 30.31 in 10.0 mi SE 11.5 mph - N/A   Overcast
10:13 AM 39.2 °F 32.5 °F 26.6 °F 61% 30.32 in 10.0 mi SE 10.4 mph - N/A   Overcast
10:33 AM 39.2 °F 32.5 °F 26.6 °F 61% 30.32 in 10.0 mi SE 10.4 mph - N/A   Overcast
10:53 AM 41.0 °F 33.5 °F 28.4 °F 61% 30.31 in 10.0 mi SE 13.8 mph 17.3 mph N/A   Overcast
11:13 AM 41.0 °F 34.7 °F 28.4 °F 61% 30.31 in 10.0 mi SE 10.4 mph - N/A   Overcast
11:33 AM 41.0 °F 33.9 °F 26.6 °F 57% 30.30 in 10.0 mi SE 12.7 mph - N/A   Overcast
11:53 AM 41.0 °F 33.5 °F 26.6 °F 57% 30.31 in 10.0 mi SE 13.8 mph 17.3 mph N/A   Overcast
12:13 PM 41.0 °F 33.9 °F 26.6 °F 57% 30.30 in 10.0 mi SE 12.7 mph 21.9 mph N/A   Overcast
12:33 PM 44.6 °F 39.7 °F 28.4 °F 53% 30.30 in 10.0 mi SE 9.2 mph - N/A   Overcast
1:13 PM 44.6 °F 38.8 °F 28.4 °F 53% 30.29 in 10.0 mi SE 11.5 mph 18.4 mph N/A   Overcast
1:33 PM 44.6 °F 38.4 °F 28.4 °F 53% 30.29 in 10.0 mi SE 12.7 mph 16.1 mph N/A   Overcast
1:53 PM 44.6 °F 39.2 °F 28.4 °F 53% 30.28 in 10.0 mi SE 10.4 mph - N/A   Overcast
2:13 PM 44.6 °F 38.1 °F 28.4 °F 53% 30.27 in 10.0 mi SE 13.8 mph - N/A   Mostly Cloudy
2:33 PM 44.6 °F 37.4 °F 26.6 °F 49% 30.27 in 10.0 mi SE 16.1 mph 20.7 mph N/A   Mostly Cloudy
3:13 PM 44.6 °F 37.8 °F 26.6 °F 49% 30.26 in 10.0 mi ESE 15.0 mph - N/A   Overcast
3:33 PM 44.6 °F 38.1 °F 28.4 °F 53% 30.26 in 10.0 mi SE 13.8 mph - N/A   Overcast
3:52 PM 44.6 °F 37.8 °F 28.4 °F 53% 30.26 in 10.0 mi SE 15.0 mph - N/A   Overcast
4:13 PM 44.6 °F 38.8 °F 28.4 °F 53% 30.26 in 10.0 mi ESE 11.5 mph 18.4 mph N/A   Overcast
4:33 PM 44.6 °F 39.7 °F 28.4 °F 53% 30.26 in 10.0 mi ESE 9.2 mph - N/A   Overcast
4:52 PM 44.6 °F 40.2 °F 28.4 °F 53% 30.25 in 10.0 mi ESE 8.1 mph - N/A   Overcast
5:13 PM 44.6 °F 40.2 °F 28.4 °F 53% 30.25 in 10.0 mi ESE 8.1 mph - N/A   Overcast
5:33 PM 44.6 °F 39.7 °F 28.4 °F 53% 30.25 in 10.0 mi East 9.2 mph - N/A   Overcast
5:53 PM 44.6 °F 40.2 °F 28.4 °F 53% 30.25 in 10.0 mi East 8.1 mph - N/A   Overcast
6:13 PM 44.6 °F 40.7 °F 30.2 °F 57% 30.25 in 10.0 mi East 6.9 mph - N/A   Overcast
6:32 PM 42.8 °F 38.6 °F 28.4 °F 57% 30.25 in 10.0 mi East 6.9 mph - N/A   Overcast
6:53 PM 41.0 °F 36.4 °F 30.2 °F 65% 30.24 in 10.0 mi East 6.9 mph - N/A   Mostly Cloudy
7:13 PM 39.2 °F 33.6 °F 28.4 °F 65% 30.25 in 10.0 mi East 8.1 mph - N/A   Mostly Cloudy
7:33 PM 39.2 °F 34.2 °F 30.2 °F 70% 30.25 in 10.0 mi East 6.9 mph - N/A   Mostly Cloudy
7:53 PM 39.2 °F 34.2 °F 30.2 °F 70% 30.25 in 10.0 mi East 6.9 mph - N/A   Mostly Cloudy
8:13 PM 39.2 °F 33.6 °F 30.2 °F 70% 30.25 in 10.0 mi East 8.1 mph - N/A   Mostly Cloudy
8:33 PM 39.2 °F 33.0 °F 30.2 °F 70% 30.25 in 10.0 mi East 9.2 mph - N/A   Mostly Cloudy
8:53 PM 39.2 °F 33.6 °F 30.2 °F 70% 30.25 in 10.0 mi East 8.1 mph - N/A   Mostly Cloudy
9:13 PM 39.2 °F 34.2 °F 30.2 °F 70% 30.25 in 10.0 mi East 6.9 mph - N/A   Scattered Clouds
9:33 PM 35.6 °F 30.7 °F 28.4 °F 75% 30.25 in 10.0 mi East 5.8 mph - N/A   Clear
9:53 PM 35.6 °F 31.7 °F 28.4 °F 75% 30.25 in 10.0 mi East 4.6 mph - N/A   Clear
10:13 PM 35.6 °F 31.7 °F 28.4 °F 75% 30.24 in 10.0 mi East 4.6 mph - N/A   Scattered Clouds
10:33 PM 35.6 °F 31.7 °F 30.2 °F 81% 30.24 in 10.0 mi East 4.6 mph - N/A   Scattered Clouds
10:53 PM 35.6 °F 32.8 °F 28.4 °F 75% 30.24 in 10.0 mi East 3.5 mph - N/A   Clear
11:12 PM 35.6 °F 31.7 °F 28.4 °F 75% 30.23 in 10.0 mi ENE 4.6 mph - N/A   Clear
11:33 PM 37.4 °F 34.9 °F 28.4 °F 70% 30.23 in 10.0 mi ENE 3.5 mph - N/A   Clear
11:53 PM 35.6 °F 32.8 °F 26.6 °F 70% 30.23 in 10.0 mi ENE 3.5 mph - N/A   Clear